AO-07 1 07530U 74089B 19290.46662208 -.00000046 00000-0 -64815-5 0 9999 2 07530 101.7609 256.9549 0012395 112.8680 42.8121 12.53640300 55650 UO-11 1 14781U 84021B 19290.46751424 .00000035 00000-0 10464-4 0 9997 2 14781 97.6047 309.4321 0007016 285.8391 74.2050 14.83112716916668 LO-19 1 20442U 90005G 19290.39990327 .00000001 00000-0 16619-4 0 9997 2 20442 98.6591 232.2503 0012229 148.9156 211.2753 14.32935204553668 HUBBLE 1 20580U 90037B 19290.83192774 .00000409 00000-0 13921-4 0 9999 2 20580 28.4686 130.8714 0002659 352.4037 111.8962 15.09282282419204 MET-2/21 1 22782U 93055A 19290.00584418 .00000049 00000-0 30370-4 0 9994 2 22782 82.5489 67.5832 0021992 197.8057 302.4631 13.83821340319500 AO-27 1 22825U 93061C 19290.05217397 -.00000011 00000-0 13673-4 0 9990 2 22825 98.9134 281.4916 0008691 15.6856 344.4593 14.30068679359150 IO-26 1 22826U 93061D 19288.97653497 -.00000005 00000-0 15872-4 0 9990 2 22826 98.9072 280.3669 0009058 7.2082 352.9228 14.30402745359202 FO-29 1 24278U 96046B 19290.66988619 -.00000003 00000-0 36567-4 0 9997 2 24278 98.5563 67.7673 0349304 286.4348 69.8675 13.53093915144161 NOAA-15 1 25338U 98030A 19290.52904783 .00000008 00000-0 21923-4 0 9999 2 25338 98.7406 311.5425 0009433 249.7207 110.2959 14.25935094114463 GO-32 1 25397U 98043D 19289.86995069 -.00000012 00000-0 13797-4 0 9996 2 25397 98.6980 228.6025 0002262 65.9588 294.1827 14.23672258104970 ISS 1 25544U 98067A 19290.90061654 .00000526 00000-0 17154-4 0 9997 2 25544 51.6429 112.7762 0007042 158.2111 344.8794 15.50202655194292 NO-44 1 26931U 01043C 19290.45196242 -.00000046 00000-0 14231-4 0 9999 2 26931 67.0523 52.0562 0007463 268.0416 91.9831 14.30555390942240 SO-50 1 27607U 02058C 19290.72700859 .00000008 00000-0 21947-4 0 9991 2 27607 64.5565 39.5423 0074859 232.9662 126.4578 14.75579720904894 CO-55 1 27844U 03031E 19289.74699817 .00000040 00000-0 37846-4 0 9998 2 27844 98.6853 296.1710 0010651 48.2018 312.0068 14.22199587845351 CO-57 1 27848U 03031J 19289.98452002 .00000022 00000-0 29892-4 0 9993 2 27848 98.6927 296.9294 0010677 58.5432 301.6788 14.21792019845232 RS-22 1 27939U 03042A 19290.72335511 .00000045 00000-0 16657-4 0 9995 2 27939 98.0583 64.3033 0013737 48.8525 311.3868 14.66809518858286 NOAA-18 1 28654U 05018A 19290.48642216 .00000086 00000-0 71571-4 0 9992 2 28654 99.0822 339.1868 0014140 194.3177 165.7595 14.12459341742563 CO-58 1 28895U 05043F 19290.37193645 .00000135 00000-0 34844-4 0 9999 2 28895 97.9770 69.0905 0016115 334.9170 25.1248 14.63700146745137 Falconsat-3 1 30776U 07006E 19290.48864572 .00002740 00000-0 76177-4 0 9996 2 30776 35.4358 39.5059 0001830 141.3372 218.7486 15.36627552699278 CO-65 1 32785U 08021C 19289.82711579 .00000173 00000-0 24275-4 0 9990 2 32785 97.5564 283.9160 0012007 219.5994 140.4347 14.88357633621551 AAUSAT2 1 32788U 08021F 19289.27428285 .00000103 00000-0 14414-4 0 9998 2 32788 97.4953 299.7095 0012369 152.1066 208.0821 14.94822655622782 DO-64 1 32789U 08021G 19290.72511662 .00000880 00000-0 62437-4 0 9993 2 32789 97.4520 336.6701 0013677 74.5106 285.7631 15.07179301625190 CO-66 1 32791U 08021J 19290.71664530 .00000144 00000-0 19907-4 0 9995 2 32791 97.5318 290.8457 0013014 188.2584 171.8423 14.90887877622147 RS-30 1 32953U 08025A 19290.85324847 .00000020 00000-0 75656-4 0 9994 2 32953 82.5007 69.4041 0018946 223.3698 136.5892 12.43091854517364 PRISM 1 33493U 09002B 19289.26526060 .00000588 00000-0 56855-4 0 9993 2 33493 98.1218 214.7568 0015775 143.5845 216.6452 14.96758257583030 NOAA-19 1 33591U 09005A 19290.54562277 .00000002 00000-0 26452-4 0 9999 2 33591 99.1888 284.6422 0014656 42.6705 317.5601 14.12379945550963 TISAT-1 1 36799U 10035E 19290.13382506 .00000333 00000-0 39625-4 0 9990 2 36799 98.1712 86.4014 0013266 54.9422 305.3038 14.91177533502719 JUGNU 1 37839U 11058B 19290.46667006 .00000310 00000-0 23044-4 0 9992 2 37839 19.9626 322.3798 0018777 218.1503 282.1749 14.12661437414354 SRMSAT 1 37841U 11058D 19290.68620359 .00000284 00000-0 10702-4 0 9996 2 37841 19.9734 20.3240 0011952 85.4932 39.4387 14.10641052413790 AO-71 1 37854U 11061E 19290.56812101 .00001531 00000-0 85051-4 0 9994 2 37854 101.7050 250.9473 0160281 66.7016 295.0974 15.06642917435196 HRBE 1 37855U 11061F 19290.75308861 .00001391 00000-0 76746-4 0 9994 2 37855 101.7171 248.5059 0173001 77.8339 284.2192 15.05649983434997 ALMASAT-1 1 38078U 12006B 19290.52514269 .00047516 47033-5 22163-3 0 9992 2 38078 69.4186 278.8183 0130522 71.8664 60.8343 15.71786711416418 HORYU-2 1 38340U 12025D 19290.40111391 .00000161 00000-0 31479-4 0 9995 2 38340 98.3171 332.5401 0012796 99.3703 260.8953 14.75760291398963 RS-40 1 38735U 12041C 19288.71245375 .00000014 00000-0 29477-4 0 9994 2 38735 082.4759 153.9006 0017349 339.3636 020.6736 12.42579135327335 BEESAT-3 1 39135U 13015F 19290.66966650 .00000750 00000-0 46501-4 0 9998 2 39135 64.8696 8.4429 0036949 291.0861 68.6316 15.17657647358608 BEESAT-2 1 39136U 13015G 19290.22543458 .00000714 00000-0 45628-4 0 9997 2 39136 64.8704 14.0470 0028583 296.4347 63.3846 15.17074173358451 ZACUBE-1 1 39417U 13066B 19289.95693995 .00000191 00000-0 30405-4 0 9991 2 39417 97.5626 296.7000 0058938 1.1892 358.9450 14.81161646318845 TRITON-1 1 39427U 13066M 19289.70296606 .00000163 00000-0 33763-4 0 9992 2 39427 097.6914 259.7581 0114614 140.6695 220.2905 14.67890065315755 GOMX-1 1 39430U 13066Q 19290.71435580 .00000116 00000-0 30318-4 0 9996 2 39430 97.7596 239.3737 0149916 232.4698 126.2811 14.59296411314250 LO-74 1 39440U 13066AA 19289.95687209 .00000191 00000-0 33303-4 0 9998 2 39440 97.6102 281.3394 0081462 54.9052 305.9762 14.75898517317719 AO-73 1 39444U 13066AE 19290.29587659 .00000238 00000-0 35637-4 0 9993 2 39444 97.5597 299.0785 0057842 353.4314 6.6135 14.81990372317799 SPROUT 1 39770U 14029E 19290.72294508 .00000480 00000-0 59055-4 0 9990 2 39770 97.8899 33.2688 0010008 52.6678 307.5471 14.87458855292826 DUCHIFAT-1 1 40021U 14033M 19289.83302639 .00000317 00000-0 38129-4 0 9999 2 40021 97.9250 214.8279 0013525 19.8943 340.2800 14.90705476289441 NANOSATCBR1 1 40024U 14033Q 19290.25929909 .00000367 00000-0 43999-4 0 9991 2 40024 97.9133 212.3630 0012874 22.6032 337.5750 14.89908839289398 EO-79 1 40025U 14033R 19290.39480023 .00000300 00000-0 37910-4 0 9999 2 40025 97.9041 209.8704 0013171 28.1649 332.0278 14.88999225289287 DTUSAT-2 1 40030U 14033W 19290.22240162 .00000210 00000-0 28556-4 0 9991 2 40030 97.8949 207.6505 0012579 25.0217 335.1607 14.88586176289188 EO-80 1 40032U 14033Y 19289.82921095 .00000234 00000-0 31218-4 0 9993 2 40032 97.8956 207.2598 0012576 26.9624 333.2244 14.88530792289117 ANTELSAT 1 40034U 14033AA 19290.05372601 .00000187 00000-0 34916-4 0 9990 2 40034 97.7427 152.0134 0060062 68.4697 292.2901 14.74146721286401 VELOX-1 1 40057U 14034E 19290.74917344 .00000295 00000-0 48737-4 0 9997 2 40057 98.2500 56.5521 0010467 200.0922 159.9877 14.77725634285646 DAURIA DX 1 1 40071U 14037C 19290.73873899 .00000077 00000-0 17375-4 0 9993 2 40071 98.4412 90.9144 0008051 190.3363 169.7682 14.81298673285179 UKUBE-1 1 40074U 14037F 19290.78817731 .00000245 00000-0 36541-4 0 9997 2 40074 98.4485 99.7166 0004006 167.0807 193.0530 14.84113401285612 HODOYOSHI-1 1 40299U 14070B 19290.71383720 .00000453 00000-0 21884-4 0 9997 2 40299 97.3423 7.9144 0012542 343.5080 167.7975 15.23475859274695 CHUBUSAT-1 1 40300U 14070C 19290.82650255 .00000545 00000-0 26603-4 0 9998 2 40300 97.3168 1.8883 0020275 353.4121 144.2947 15.22206808274442 QSAT-EOS 1 40301U 14070D 19290.75037391 .00001242 00000-0 50418-4 0 9997 2 40301 97.3196 5.5185 0025070 334.4949 123.7165 15.26210570274758 FIREBIRD FU3 1 40377U 15003B 19290.43532694 .00002206 00000-0 89205-4 0 9995 2 40377 99.1200 295.4765 0127022 48.5635 312.6423 15.19135336260250 FIREBIRD FU4 1 40378U 15003C 19290.75117407 .00002158 00000-0 87309-4 0 9991 2 40378 99.1203 295.9407 0127188 47.3949 313.7924 15.19146663260309 GRIFEX 1 40379U 15003D 19290.74574869 .00001391 00000-0 62460-4 0 9999 2 40379 99.1222 289.2567 0135655 67.7092 293.8454 15.15730108259928 NO-84 1 40654U 15025D 19289.17805757 .00008378 00000 0 11678-3 0 7484 2 40654 54.9912 347.0502 0128133 273.5807 85.0537 15.48899034130959 NO-83 1 40655U 15025E 19289.14074546 .00248779 36806-4 46200-3 0 9363 2 40655 54.9597 199.5954 0025341 9.1110 351.0476 16.00040168132682 DEORBITSAIL 1 40719U 15032E 19290.12702273 .00000338 00000-0 55300-4 0 9998 2 40719 97.8925 179.4106 0015088 279.3213 80.6291 14.76814083230036 NUDT-PHONESAT 1 40900U 15049B 19290.73584220 .00001670 00000-0 73568-4 0 9991 2 40900 97.4368 298.9080 0014264 116.6112 331.4514 15.23144154226082 XW-2A 1 40903U 15049E 19290.74712341 .00001547 00000-0 37946-4 0 9995 2 40903 97.3250 334.1303 0015178 69.0179 65.0072 15.42195972228901 XW-2C 1 40906U 15049H 19290.74556821 .00000566 00000-0 33039-4 0 9996 2 40906 97.4713 290.8507 0015751 134.3893 328.1386 15.15783459225337 XW-2D 1 40907U 15049J 19290.83650485 .00000318 00000-0 20006-4 0 9993 2 40907 97.4696 290.6206 0015068 130.8725 313.0798 15.15979089225367 LILACSAT-2 1 40908U 15049K 19290.75330608 .00000107 00000-0 95296-5 0 9997 2 40908 97.4834 289.2296 0016649 138.9288 307.0637 15.13865412225125 XW-2E 1 40909U 15049L 19290.79371528 .00000865 00000-0 45822-4 0 9998 2 40909 97.4620 293.6165 0014964 126.1867 227.7140 15.17957125225554 XW-2F 1 40910U 15049M 19290.74893321 .00000815 00000-0 43966-4 0 9997 2 40910 97.4659 292.7201 0016023 124.0851 323.5599 15.17469124225377 XW-2B 1 40911U 15049N 19290.79281250 .00000652 00000-0 37402-4 0 9992 2 40911 97.4716 291.2482 0015156 132.5065 224.2766 15.15909797225246 DCBB 1 40912U 15049P 19290.78644880 .00000926 00000-0 46341-4 0 9990 2 40912 97.4509 296.5900 0016462 107.4693 305.5267 15.19802545225706 TW-1C 1 40926U 15051B 19290.87514581 .00011419 00000-0 15343-3 0 9998 2 40926 97.1220 336.9774 0005340 282.6636 131.5000 15.58051992229017 TW-1A 1 40928U 15051D 19290.72879318 .00002222 00000-0 55142-4 0 9990 2 40928 97.1361 319.3332 0011265 3.6665 108.5473 15.41352382227819 IO-86 1 40931U 15052B 19289.50813792 .00000770 00000-0 17866-4 0 9990 2 40931 6.0052 282.2210 0015993 47.1467 313.0358 14.76617888219006 LQSat 1 40958U 15057A 19289.86041120 .00000014 00000-0 98142-5 0 9999 2 40958 097.8870 355.7379 0017447 211.8432 148.1722 14.73091969216508 AO-85 1 40967U 15058D 19290.19732709 .00000105 00000 0 30433-4 0 8377 2 40967 64.7764 152.4510 0185833 163.3217 197.4115 14.76003686125525 ATHENOXAT-1 1 41168U 15077C 19290.55722024 .00001842 00000-0 61843-4 0 9999 2 41168 14.9891 50.1793 0011622 334.2164 25.7578 15.13838775212326 ChubuSat-2 1 41338U 16012B 19289.85764776 .00000302 00000-0 16698-4 0 9997 2 41338 31.0027 101.0786 0013859 214.2920 145.6821 15.00193229200970 ChubuSat-3 1 41339U 16012C 19290.74457711 .00000335 00000-0 19256-4 0 9995 2 41339 31.0097 93.3807 0013572 230.8754 129.0674 15.00366161201101 Horyu-4 1 41340U 16012D 19290.51182382 .00000463 00000-0 28319-4 0 9993 2 41340 31.0048 85.0946 0014115 248.4600 111.4531 15.01333544201185 OUFTI-1 1 41458U 16025C 19290.71824327 .00000731 00000-0 41545-4 0 9995 2 41458 98.1006 23.7177 0164525 310.4331 48.2640 15.06086563190782 e-st@r-II 1 41459U 16025D 19290.76412310 .00000301 00000-0 20053-4 0 9990 2 41459 98.1007 23.3576 0165562 311.8348 46.8827 15.05705921190762 AAUSAT4 1 41460U 16025E 19290.71805345 .00001335 00000-0 70753-4 0 9991 2 41460 98.0976 24.8649 0155560 303.3897 55.2537 15.07694127190902 LO-87 1 41557U 16033B 19290.79117932 .00001108 00000-0 43947-4 0 9996 2 41557 97.4147 17.5811 0012587 225.0242 134.9978 15.27446004188572 NuSat2 1 41558U 16033C 19290.80544546 .00001210 00000-0 45122-4 0 9995 2 41558 97.4180 19.0383 0011631 224.3166 135.7144 15.29361269188640 Lapan A3 1 41603U 16040E 19290.74160002 .00000138 00000-0 95993-5 0 9998 2 41603 97.3473 346.3772 0013010 342.9209 165.5120 15.19752836184128 Swayam 1 41607U 16040J 19290.59054861 .00001291 00000-0 56840-4 0 9998 2 41607 97.3527 350.3161 0012414 332.5676 27.4905 15.23559312184282 Pratham 1 41783U 16059A 19290.45043136 .00000041 00000-0 17225-4 0 9997 2 41783 98.0539 347.2808 0033589 6.6340 353.5300 14.63014202163202 AlSat 1N 1 41789U 16059G 19290.74596133 .00000079 00000-0 23934-4 0 9990 2 41789 98.0573 349.8314 0028246 355.0365 5.0549 14.64268177163362 ScatSat 1 41790U 16059H 19290.68185731 .00000024 00000-0 16939-4 0 9990 2 41790 98.1972 332.7709 0004955 322.8752 37.2100 14.50890685161874 TY-1 1 41844U 16066D 19290.74598589 .00000683 00000-0 30676-4 0 9999 2 41844 97.4066 296.7039 0016537 118.2460 327.9020 15.24437049163131 Pegasus-1 1 41846U 16066F 19289.10407251 .00000217 00000-0 44264-4 0 9995 2 41846 098.6991 331.1359 0366397 243.2848 113.0401 14.37629295153712 CAS-2T 1 41847U 16066G 19290.12307174 .00000041 00000-0 17476-4 0 9993 2 41847 98.6927 332.6943 0364951 236.4998 120.0821 14.38011631154301 EO-88 1 42017U 17008BX 19290.11748802 .00001256 00000-0 51956-4 0 9996 2 42017 97.3912 355.9108 0007914 102.6936 257.5187 15.25794969148281 nSIGHT1 1 42726U 98067MF 19290.75862711 .00035591 00000-0 22142-3 0 9996 2 42726 51.6337 47.4235 0004950 294.2780 65.7702 15.76587799136880 CAS-4B 1 42759U 17034B 19290.88243618 .00000048 00000-0 16490-4 0 9999 2 42759 43.0191 285.1390 0012745 294.0618 139.7235 15.09654714129154 CAS-4A 1 42761U 17034D 19290.83782229 .00000277 00000-0 30367-4 0 9996 2 42761 43.0189 284.8432 0013123 296.2402 129.2175 15.09734156129148 UCLSat 1 42765U 17036A 19290.44209731 .00001076 00000-0 48705-4 0 9994 2 42765 97.3376 345.7951 0012061 157.7120 202.4643 15.22954658128849 NIUSat 1 42766U 17036B 19290.73789297 .00000807 00000-0 39038-4 0 9997 2 42766 97.3371 344.2032 0016473 150.7691 209.4470 15.21279516128630 LituanicaSAT 2 1 42768U 17036D 19290.21484547 .00001804 00000-0 79118-4 0 9993 2 42768 97.3417 345.2544 0015895 151.1159 209.0961 15.23144966128658 Aalto 1 1 42775U 17036L 19290.08947221 .00000652 00000-0 31981-4 0 9995 2 42775 97.3358 343.9142 0014755 152.0343 208.1689 15.21478546128512 URSA MAIOR 1 42776U 17036M 19290.10509597 .00000691 00000-0 33562-4 0 9999 2 42776 97.3367 344.1175 0014585 151.8650 208.3377 15.21623565128521 Max Valier Sat 1 42778U 17036P 19289.76953556 .00000814 00000-0 38400-4 0 9992 2 42778 97.3412 344.7138 0013097 155.9485 204.2366 15.22184320128500 Pegasus 1 42784U 17036V 19289.82949723 .00000955 00000-0 43866-4 0 9995 2 42784 97.3380 344.9775 0012542 160.6943 199.4772 15.22690824128547 NUDATSat 1 42787U 17036Y 19290.20807518 .00001633 00000-0 70771-4 0 9996 2 42787 97.3431 346.2369 0010743 156.7814 203.3914 15.23751364128490 SUCHAI 1 1 42788U 17036Z 19290.39396816 .00001182 00000-0 52922-4 0 9998 2 42788 97.3385 345.9127 0012214 157.6084 202.5689 15.23143630128728 SKCUBE 1 42789U 17036AA 19289.23554100 .00001116 00000-0 50316-4 0 9994 2 42789 097.3383 344.6984 0011977 161.5951 198.5721 15.23025431128466 VZLUSAT 1 1 42790U 17036AB 19289.93259688 .00001419 00000-0 61882-4 0 9992 2 42790 097.3400 345.9642 0011649 157.7907 202.3837 15.23741620128600 VENTA 1 1 42791U 17036AC 19289.73441298 .00001053 00000-0 47633-4 0 9993 2 42791 097.3381 345.2365 0011657 160.1010 200.0684 15.23032504128537 Robusta 1B 1 42792U 17036AD 19290.33548366 .00001091 00000-0 48993-4 0 9998 2 42792 97.3383 345.9526 0011632 158.1899 201.9835 15.23205057128657 D-SAT 1 42794U 17036AF 19289.92650506 .00000297 00000-0 30823-4 0 9993 2 42794 097.5267 329.2594 0128016 100.7706 260.7954 14.91148041126259 TechnoSat 1 42829U 17042E 19290.81461460 .00000068 00000-0 12231-4 0 9997 2 42829 97.5469 178.5509 0014855 22.5845 337.6024 14.91009612122981 TOMSK-TPU 120 1 42910U 98067MZ 19290.52015410 .00981258 11875-4 47154-3 0 9998 2 42910 51.6268 10.9670 0010260 348.6867 96.0165 16.20455877124290 QIKCOM-1 1 42983U 98067NF 19290.71360448 .00003521 00000-0 49740-4 0 9999 2 42983 51.6386 92.3583 0003836 213.2342 146.8411 15.59572617112225 AO-91 1 43017U 17073E 19289.98885467 .00000347 00000-0 32089-4 0 9997 2 43017 97.7208 206.6384 0259015 126.4822 236.0558 14.78650603103032 EcAMSat 1 43019U 98067NG 19290.60716313 .00006727 00000-0 79910-4 0 9997 2 43019 51.6401 85.7017 0004366 198.3462 161.7376 15.62505094194626 PICSAT 1 43132U 18004X 19289.75371192 .00001190 00000-0 52362-4 0 9993 2 43132 97.4772 357.2781 0009569 183.7033 176.4135 15.23802794 97787 AO-92 1 43137U 18004AC 19289.75555987 .00000901 00000-0 40564-4 0 9994 2 43137 97.4761 357.2254 0009052 185.2246 174.8898 15.23643712 97775 TianYi 2 1 43155U 18008A 19290.71976919 .00000620 00000-0 40562-4 0 9994 2 43155 97.4777 0.6615 0016023 267.9318 190.6099 15.11278733 96105 Zhou Enlai 1 43156U 18008B 19290.75019808 .00001115 00000-0 70898-4 0 9999 2 43156 97.4822 0.5673 0013342 266.6888 246.9726 15.10792458 96071 TianYi 6 1 43158U 18008D 19290.82550816 .00000613 00000-0 41126-4 0 9992 2 43158 97.4767 359.9905 0012505 264.0694 233.3537 15.10365049 96046 S-Net G 1 43186U 18014G 19289.96760556 .00000620 00000-0 59321-4 0 9991 2 43186 97.7012 196.6158 0010185 331.6928 28.3738 14.96693158 93121 S-Net H 1 43187U 18014H 19290.70283188 .00000533 00000-0 51751-4 0 9999 2 43187 97.7009 197.3250 0010143 328.8920 31.1700 14.96694014 93238 S-Net J 1 43188U 18014J 19290.50208943 .00000573 00000-0 55211-4 0 9993 2 43188 97.7011 197.1481 0010137 329.8224 30.2413 14.96693428 93203 S-Net K 1 43189U 18014K 19290.70300276 .00000550 00000-0 53265-4 0 9990 2 43189 97.7007 197.3222 0010126 328.9705 31.0917 14.96693600 91787 FMN 1 1 43192U 18015A 19290.72381604 .00001948 00000-0 81653-4 0 9995 2 43192 97.4153 57.0739 0014940 224.4249 249.6120 15.24628847 94752 Shaonian Xing 1 43199U 18015H 19290.76140449 .00001360 00000-0 57183-4 0 9995 2 43199 97.3939 55.9776 0015790 235.7030 230.4905 15.25048782 94816 1KUNS-PF 1 43466U 98067NP 19290.61357973 .00030414 00000-0 24279-3 0 9994 2 43466 51.6353 78.8463 0001229 257.7007 102.3853 15.70854263 81895 UBAKUSAT 1 43467U 98067NQ 19290.82012707 .00016084 00000-0 16285-3 0 9996 2 43467 51.6359 85.5012 0002129 175.1210 184.9806 15.65443640 81831 Irazu 1 43468U 98067NR 19289.87021437 .00046968 00000-0 29703-3 0 9993 2 43468 51.6358 76.0628 0001730 275.6544 84.4259 15.76095701181854 EnduroSat One 1 43551U 98067NZ 19290.68309642 .00020455 00000-0 19910-3 0 9996 2 43551 51.6360 88.3372 0005380 243.5012 116.5432 15.66230929 72010 EQUISat 1 43552U 98067PA 19289.88486155 .00014836 00000-0 15755-3 0 9991 2 43552 51.6371 95.0477 0005697 236.1779 123.8674 15.64295363 71810 UiTMSat 1 1 43589U 98067PD 19289.80513576 .00018255 00000-0 18908-3 0 9993 2 43589 51.6344 95.9297 0005099 243.6387 116.4085 15.64751528 67531 Maya 1 1 43590U 98067PE 19290.82071749 .00017864 00000-0 18478-3 0 9997 2 43590 51.6348 90.7178 0005225 248.2260 111.8179 15.64803049 67629 Bhutan 1 1 43591U 98067PF 19290.48752137 .00018399 00000-0 18975-3 0 9993 2 43591 51.6363 92.2772 0005369 247.9451 112.0974 15.64852943 67578 SiriusSat 1 1 43595U 98067PG 19290.03134576 .00015846 00000-0 17100-3 0 9992 2 43595 51.6345 96.6982 0003470 203.4114 156.6723 15.63831252 66650 SiriusSat 2 1 43596U 98067PH 19289.94642723 .00015931 00000-0 17305-3 0 9991 2 43596 51.6355 97.6797 0003960 203.3232 156.7584 15.63656069 66636 Tanusha-3 1 43597U 98067PJ 19289.92653459 .00022124 00000-0 21606-3 0 9999 2 43597 051.6338 094.4610 0003521 222.6811 137.3912 15.66099299066670 SurfSat 1 43614U 18070B 19289.59827505 .00002779 00000-0 74389-4 0 9994 2 43614 93.0353 53.1925 0014961 193.7833 166.3014 15.38000139 60831 CP-7 DAVE 1 43615U 18070C 19290.78217750 .00002681 00000-0 71958-4 0 9994 2 43615 93.0358 53.6820 0015318 188.7246 171.3744 15.37909499 61018 ELFIN-B 1 43616U 18070D 19290.27927773 .00003871 00000-0 10108-3 0 9993 2 43616 93.0319 53.3803 0015850 194.5105 165.5696 15.38722062 60957 ELFIN-A 1 43617U 18070E 19290.39900858 .00004280 00000-0 11146-3 0 9990 2 43617 93.0372 53.7392 0015203 190.3535 169.7409 15.38805732 60973 STARS-Me Mother 1 43640U 98067PQ 19289.91499399 .00008720 00000-0 11096-3 0 9996 2 43640 51.6356 103.4639 0005355 185.1226 174.9713 15.60228754 58481 CubeBel 1 1 43666U 18083E 19290.74258457 .00000849 00000-0 45312-4 0 9998 2 43666 97.5136 314.3649 0016368 124.1761 348.2253 15.17766950 53646 Changshagaoxin 1 43669U 18083H 19290.76878467 .00000574 00000-0 32503-4 0 9995 2 43669 97.4996 313.3279 0012438 117.1391 243.1112 15.16926881 53585 Ten-Koh 1 43677U 18084G 19290.48725495 .00000085 00000-0 14680-4 0 9999 2 43677 97.8629 43.5093 0014845 240.9063 119.0668 14.90202341 52600 PO-101 1 43678U 18084H 19290.76121738 .00000445 00000-0 50038-4 0 9998 2 43678 97.8627 44.5656 0008579 263.1109 96.9142 14.91580798 52695 IRVINE 01 1 43693U 18088D 19290.16455998 .00001956 00000-0 84015-4 0 9991 2 43693 85.0365 238.5281 0020671 107.1910 253.1597 15.21781173 51686 QO-100 1 43700U 18090A 19290.77976380 .00000148 00000-0 00000 0 0 9992 2 43700 0.0168 183.0828 0001743 52.8560 96.5948 1.00272233 3501 Reaktor Hello World 1 43743U 18096AA 19290.88981311 .00001009 00000-0 41011-4 0 9996 2 43743 97.4500 0.7012 0016545 268.8379 179.9673 15.26831472 49220 MinXSS-2 1 43758U 18099A 19290.79622401 .00000266 00000-0 29219-4 0 9997 2 43758 97.7347 1.3572 0014266 284.1107 75.8528 14.95479045 47538 AO-95 1 43770U 18099N 19290.12841069 .00000205 00000-0 24086-4 0 9991 2 43770 97.7349 0.3963 0013268 294.3714 65.6121 14.94826613 47414 RANGE-B 1 43772U 18099Q 19289.84037660 .00000090 00000-0 13500-4 0 9995 2 43772 097.7409 000.3683 0012768 281.7467 078.2320 14.94958092047363 RANGE-A 1 43773U 18099R 19290.25270677 -.00000129 00000-0 -65364-5 0 9991 2 43773 97.7295 0.3333 0012187 280.1651 79.8195 14.94846941 47425 MOVE-II 1 43780U 18099Y 19290.67319851 .00000749 00000-0 73393-4 0 9999 2 43780 97.7341 1.0123 0012141 289.6594 70.3316 14.95152084 47486 SNUSat 2 1 43782U 18099AA 19290.13432224 .00000380 00000-0 39935-4 0 9997 2 43782 97.7344 0.5250 0011368 280.1301 79.8637 14.95105368 47414 SnugLite 1 43784U 18099AC 19289.84997664 -.00000146 00000-0 -80301-5 0 9995 2 43784 097.7311 000.1420 0013807 290.1678 069.8057 14.95193018047383 ITASat 1 1 43786U 18099AE 19290.51714977 -.00000181 00000-0 -11211-4 0 9999 2 43786 97.7364 1.0222 0013877 286.6095 73.3602 14.95189799 47481 EAGLET 1 1 43790U 18099AJ 19290.16934835 .00000051 00000-0 98023-5 0 9993 2 43790 97.7356 0.8251 0012100 293.9170 66.0783 14.95566857 47134 ESEO 1 43792U 18099AL 19290.43576088 -.00000113 00000-0 -49807-5 0 9994 2 43792 97.7334 1.0136 0011874 289.9104 70.0837 14.95536093 47231 CSIM 1 43793U 18099AM 19290.27100558 .00000697 00000-0 67585-4 0 9999 2 43793 97.7303 0.7475 0011614 285.7330 74.2610 14.95791947 47187 Astrocast 0.1 1 43798U 18099AS 19290.45588532 -.00000159 00000-0 -90530-5 0 9998 2 43798 97.7340 1.1643 0011128 270.1400 89.8546 14.95764900 47472 JO-97 1 43803U 18099AX 19290.82550962 .00000496 00000-0 50198-4 0 9999 2 43803 97.7324 1.2111 0013658 286.2557 73.7161 14.95335763 47525 Suomi 100 1 43804U 18099AY 19290.22289994 .00000576 00000-0 57453-4 0 9998 2 43804 97.7324 0.6130 0013743 288.5108 71.4619 14.95332015 47443 Al Farabi 2 1 43805U 18099AZ 19290.81539586 .00000783 00000-0 75999-4 0 9994 2 43805 97.7325 1.2269 0013769 286.1148 73.8557 14.95404496 47531 PWSat 2 1 43814U 18099BJ 19290.49412752 .00016774 00000-0 12628-2 0 9998 2 43814 97.7713 3.4723 0007760 258.5999 101.4349 15.02564122 46978 CHOMPTT 1 43855U 18104G 19290.11061149 .00001126 00000-0 46692-4 0 9994 2 43855 85.0395 336.8325 0015268 228.4466 131.5469 15.22545015 46347 ISAT 1 43879U 18111D 19290.78879292 -.00000194 00000-0 -12131-4 0 9994 2 43879 97.7091 196.9873 0013064 345.8400 14.2454 14.96057142 42046 UWE-4 1 43880U 18111E 19289.80475703 .00000221 00000-0 24680-4 0 9997 2 43880 97.7096 196.1641 0012132 349.9533 10.1444 14.96294647 41906 Sparrow 1 43881U 18111F 19290.79876684 .00000008 00000-0 58307-5 0 9998 2 43881 97.7102 197.1797 0012252 345.1740 14.9121 14.96344193 42052 Lume 1 1 43908U 18111AJ 19290.44846777 .00000957 00000-0 41587-4 0 9994 2 43908 97.2790 192.3481 0019929 287.0790 72.8265 15.24531600 44848 FO-98 1 43933U 19003B 19290.75443294 .00000608 00000-0 29702-4 0 9992 2 43933 97.2685 344.3335 0018704 24.9194 114.8410 15.21768123 41465 FO-99 1 43937U 19003F 19290.73306703 .00001054 00000-0 46315-4 0 9992 2 43937 97.2642 344.9100 0024691 9.6685 86.6004 15.23798950 41519 Delphini 1 1 44030U 98067PW 19289.71990148 .00012590 00000-0 16666-3 0 9994 2 44030 51.6355 109.6722 0004487 228.2979 131.7630 15.58700136 40255 MYSat 1 1 44045U 18092F 19289.82705735 .00001445 00000-0 52420-4 0 9994 2 44045 051.6461 148.9381 0012767 154.2063 205.9548 15.35393959037690 AstroCast 0.2 1 44083U 19018F 19290.75757831 .00000420 00000-0 21795-4 0 9996 2 44083 97.4554 349.7049 0012604 309.4475 50.5645 15.21480632 30321 AISTechSat 3 1 44103U 19018AB 19290.74258169 .00000689 00000-0 32496-4 0 9995 2 44103 97.4439 349.7306 0012735 329.4271 124.7475 15.22778016 30347 AISat 1 1 44104U 19018AC 19290.75057677 .00000639 00000-0 23226-4 0 9994 2 44104 97.4965 353.4974 0058728 359.3490 0.7665 15.30635150 30526 Raavana-1 1 44329U 98067QE 19290.52803028 .00007747 00000-0 12724-3 0 9995 2 44329 51.6391 112.8436 0007454 169.5992 190.5154 15.53426955 19038 Uguisu 1 44330U 98067QF 19290.59544715 .00007745 00000-0 12740-3 0 9995 2 44330 51.6392 112.5430 0007452 168.5999 191.5162 15.53383925 19024 NepaliSat-1 1 44331U 98067QG 19290.58962699 .00007997 00000-0 13094-3 0 9992 2 44331 51.6391 112.5051 0007543 171.1278 188.9847 15.53461665 19033 Prox-1 1 44339U 19036A 19290.15480122 .00000868 00000-0 15755-3 0 9994 2 44339 24.0002 208.7001 0009787 3.3035 356.7528 14.52692321 16565 OBJECT H 1 44346U 19036H 19290.88476784 .00007547 00000-0 11521-3 0 9999 2 44346 28.5243 175.9777 0385337 237.4542 118.8269 14.97787850 17184 OBJECT J 1 44347U 19036J 19290.85463026 .00029270 00000-0 44779-3 0 9990 2 44347 28.5322 173.8437 0366543 240.5502 115.8020 15.02376068 17209 OBJECT K 1 44348U 19036K 19290.11971449 .00007296 00000-0 10998-3 0 9993 2 44348 28.5181 180.4372 0385081 229.8964 126.7264 14.98065189 17074 Armadillo 1 44352U 19036P 19290.88689388 .00009574 00000-0 14715-3 0 9992 2 44352 28.5332 175.0995 0380471 238.4023 117.8895 14.98879064 17131 NO-104 1 44354U 19036R 19290.79618224 .00007569 00000-0 11303-3 0 9997 2 44354 28.5327 175.2859 0382412 237.7596 118.5381 14.98842784 17162 NO-103 1 44355U 19036S 19290.81835890 .00012418 00000-0 18746-3 0 9998 2 44355 28.5334 174.4993 0376725 239.0908 117.2125 15.00224866 17175 Oculus-ASR 1 44356U 19036T 19290.03855670 .00029043 00000-0 39886-3 0 9991 2 44356 28.5264 176.8775 0365428 234.9621 121.6163 15.04875572 17098 CP9 1 44360U 19036X 19290.08845137 .00019511 00000-0 26092-3 0 9992 2 44360 28.5181 177.1579 0377743 234.8810 121.5812 15.02800914 16960 Move-IIb 1 44398U 19038N 19290.75575918 .00001148 00000-0 70714-4 0 9994 2 44398 97.5023 250.7084 0023950 245.8460 114.0266 15.11766788 15758 SONATE 1 44400U 19038Q 19290.49028914 .00000438 00000-0 29409-4 0 9994 2 44400 97.5039 250.4590 0023865 244.6819 115.1939 15.11707024 15711 BeeSat 9 1 44412U 19038AC 19289.75237981 .00000738 00000-0 46735-4 0 9994 2 44412 097.5033 249.7530 0021377 253.6146 106.2734 15.11881889015291 JAISAT-1 1 44419U 19038F 19290.11561314 .00000708 00000-0 44427-4 0 9996 2 44419 97.5036 250.1896 0020183 251.9576 107.9456 15.12372157 15668 LightSail-2 1 44420U 19036AC 19290.14395795 .00005066 00000-0 11465-2 0 9993 2 44420 24.0058 208.6356 0010393 331.7525 28.2390 14.53325668 14706 Taurus 1 1 44530U 19059C 19290.70587755 .00000495 00000-0 15385-3 0 9998 2 44530 98.5851 4.3460 0015279 164.9855 195.1802 14.45255017 5132 /EX
